GEFSNGP_con_prob3kmehi_210.txt.gz
EHI
0 0 0 0 0 0 0 0 0 0 2 4 6 10 13 13 14 19 24 31 38 43 45 48 51 51 48 45 42 39 39 39 37 32 26 23 22 18 15 13 14 16 17 17
0 0 0 0 0 0 0 0 0 1 2 3 6 9 12 13 14 18 24 29 34 39 42 46 49 48 45 44 42 39 38 38 36 33 27 24 22 21 18 16 15 16 16 16
0 0 0 0 0 0 0 1 1 1 2 3 5 9 13 14 13 16 22 25 29 34 40 45 48 46 43 43 42 39 37 36 35 33 30 26 24 21 21 19 18 17 16 15
0 0 0 0 0 0 0 1 2 1 1 2 4 9 13 15 14 15 19 22 26 31 38 45 49 46 42 41 40 38 36 34 31 30 30 30 27 22 20 20 19 18 17 16
0 0 0 0 0 0 1 1 1 1 0 2 5 10 14 16 18 17 18 21 26 32 38 45 48 44 38 36 34 33 32 30 27 26 27 29 28 23 20 19 19 18 17 15
0 0 0 0 0 1 2 1 0 0 1 3 6 10 14 18 21 22 22 25 31 35 40 43 44 39 35 31 28 26 26 26 26 24 23 24 24 21 17 16 15 14 13 12
0 0 1 0 0 1 2 3 2 1 2 5 8 11 16 19 23 27 30 31 33 36 40 40 36 33 32 30 26 24 23 24 23 19 17 17 19 17 13 11 11 8 7 7
0 0 0 0 0 1 3 4 4 2 3 7 11 13 16 19 23 27 29 29 29 31 34 32 28 28 30 29 27 25 24 21 17 14 11 11 13 12 9 8 7 4 3 4
0 0 0 1 1 0 2 4 4 3 4 8 12 14 14 15 18 21 22 23 24 24 27 27 25 26 29 30 28 26 23 19 15 12 9 9 11 10 7 5 5 3 3 4
1 1 1 2 2 1 1 3 3 4 5 7 10 11 12 12 14 17 20 22 23 23 25 28 26 26 28 28 28 24 20 17 16 13 11 10 10 9 7 5 4 4 4 4
2 2 3 3 3 3 2 3 4 6 7 8 8 9 10 11 14 18 22 24 24 24 27 29 27 25 24 24 25 23 19 16 14 12 11 10 9 7 6 4 4 4 4 3
2 2 3 4 4 4 3 3 5 7 8 10 8 8 10 14 18 22 25 26 26 26 26 25 22 21 19 18 21 21 18 13 10 10 10 10 8 5 3 2 2 3 3 2
1 2 4 5 5 4 3 3 4 6 8 10 10 10 13 18 21 24 26 25 25 25 23 19 16 15 15 15 15 16 13 9 8 9 9 9 7 3 1 0 0 1 1 1
1 2 5 5 4 3 2 2 3 5 8 11 12 14 17 19 20 20 20 19 18 17 15 13 12 12 13 12 11 11 9 8 8 9 9 8 5 2 0 0 0 0 0 0
0 2 4 4 3 1 1 2 4 7 11 13 14 14 16 17 15 13 11 11 10 9 8 8 8 9 10 9 8 8 7 7 8 8 7 5 3 1 0 0 0 0 0 0
1 2 3 3 2 1 1 2 4 7 10 11 11 10 11 12 10 8 7 6 5 4 4 5 6 7 8 7 6 6 5 5 6 6 5 3 3 2 1 0 0 0 0 0
2 2 2 2 1 1 1 2 3 5 6 6 6 6 7 7 6 5 5 5 4 3 3 3 4 5 6 6 5 4 4 4 5 5 4 3 3 2 1 0 0 0 0 0
1 1 1 1 1 1 1 2 3 3 3 3 4 4 4 4 3 3 4 4 3 3 3 3 3 4 5 4 4 3 3 4 5 6 4 3 2 1 0 0 0 0 0 0
0 0 0 0 0 0 1 1 2 2 3 3 3 3 3 2 1 1 2 3 3 3 3 3 3 3 4 3 3 3 3 3 4 4 2 1 1 0 0 0 0 0 0 0
1 0 0 0 0 0 0 0 1 1 1 2 3 3 3 2 1 1 1 2 2 2 2 3 3 3 3 2 2 2 2 1 1 1 0 0 0 0 0 0 0 0 0 0
1 0 0 0 0 0 0 0 0 0 0 1 2 2 2 1 0 1 1 1 1 1 1 1 2 2 1 1 1 1 1 0 0 0 0 0 0 0 0 0 0 0 0 0
1 0 0 0 0 0 0 0 0 0 0 0 1 1 1 0 0 0 0 0 0 0 0 0 1 1 0 0 0 0 0 0 0 0 0 0 0 0 0 0 0 0 0 0
0 0 0 0 0 0 0 0 0 0 0 0 0 0 0 0 0 0 0 0 0 0 0 0 0 0 0 0 0 0 0 0 0 0 0 0 0 0 0 0 0 0 0 0
0 0 0 0 0 0 0 0 0 0 0 0 0 0 0 0 0 0 0 0 0 0 0 0 0 0 0 0 0 0 0 0 0 0 0 0 0 0 0 0 0 0 0 0
0 0 0 0 0 0 0 0 0 0 0 0 0 0 0 0 0 0 0 0 0 0 0 0 0 0 0 0 0 0 0 0 0 0 0 0 0 0 0 0 0 0 0 0
0 0 0 0 0 0 0 0 0 0 0 0 0 0 0 0 0 0 0 0 0 0 0 0 0 0 0 0 0 0 0 0 0 0 0 0 0 0 0 0 0 0 0 0
0 0 0 0 0 0 0 0 0 0 0 0 0 0 0 0 0 0 0 0 0 0 0 0 0 0 0 0 0 0 0 0 0 0 0 0 0 0 0 0 0 0 0 0

GEFSNGP_con_prob3kmehi_216.txt.gz
EHI
0 0 0 0 0 0 0 0 1 3 7 11 17 23 27 26 26 30 36 43 53 65 68 68 66 65 65 65 65 61 56 53 54 53 52 50 49 50 48 44 41 36 28 22
0 0 0 0 0 0 0 1 2 5 9 13 18 25 29 28 28 32 37 43 53 63 66 67 66 66 67 66 62 58 54 52 52 52 51 50 48 47 45 42 40 35 28 22
0 0 0 0 0 0 1 3 6 8 11 13 18 26 30 30 31 34 39 46 54 59 62 64 65 67 66 62 55 51 50 51 52 51 49 47 45 44 43 41 39 36 30 24
0 0 0 0 0 1 4 7 9 11 12 14 17 23 27 30 32 34 39 45 50 52 55 59 63 65 61 53 49 46 46 47 48 48 45 43 41 40 40 39 38 36 31 26
0 0 0 1 2 3 6 8 9 10 12 14 16 19 23 28 32 34 38 41 43 44 47 54 59 60 55 49 47 45 43 42 41 41 42 41 40 39 38 36 35 32 26 24
0 1 2 3 4 5 6 7 7 8 12 15 17 21 27 31 33 36 39 40 40 41 45 52 55 53 51 49 48 45 42 39 37 38 40 41 40 39 37 35 32 27 22 19
1 1 4 6 7 7 10 11 11 11 14 16 20 27 33 35 36 40 43 42 41 43 48 51 49 46 45 44 44 42 38 37 37 37 38 37 35 34 32 30 28 23 19 17
1 3 8 12 13 15 20 21 18 17 17 18 22 26 32 35 36 40 44 45 46 48 50 48 43 40 39 37 36 35 35 35 35 33 31 29 28 27 24 22 20 18 15 14
2 5 11 16 18 20 23 24 21 19 18 19 22 25 29 33 36 39 42 44 47 47 46 43 39 38 37 34 32 34 35 35 31 28 25 23 22 20 17 14 12 10 8 8
4 5 9 13 15 16 18 21 19 17 17 19 23 27 30 33 36 37 38 39 41 42 40 39 38 38 37 36 34 36 36 33 27 23 22 20 16 13 9 7 7 6 5 6
8 7 8 10 10 11 16 19 19 17 17 20 23 27 30 31 32 34 35 35 36 36 36 37 37 37 36 35 34 34 34 29 22 18 19 17 12 7 4 3 4 4 6 7
13 12 12 10 8 9 14 18 19 18 18 19 22 25 26 26 28 31 32 34 35 35 36 36 36 36 35 33 31 29 28 23 17 14 15 15 11 6 2 1 1 2 4 5
15 15 13 10 8 8 11 15 18 18 18 18 21 22 23 25 27 30 31 32 34 36 36 35 33 32 31 29 27 24 21 16 13 12 12 12 12 8 4 1 0 0 1 1
10 11 12 11 9 8 10 14 16 18 17 18 20 22 24 26 28 28 28 27 29 32 33 31 27 24 23 23 22 21 19 14 11 11 10 11 12 11 8 5 2 0 0 0
5 6 9 11 12 11 11 13 16 16 16 17 19 22 25 26 26 24 23 22 23 25 25 21 18 16 15 16 17 18 17 15 12 11 11 11 11 11 11 9 5 1 0 0
4 4 8 11 12 11 10 11 12 12 13 14 16 18 21 22 21 20 18 18 18 19 17 13 11 11 11 11 11 12 12 12 11 11 11 11 11 11 11 10 5 1 0 0
3 4 6 9 9 7 6 6 7 8 9 11 12 12 13 14 15 15 15 14 14 13 10 8 8 8 8 8 7 7 7 7 7 9 10 10 10 10 9 7 4 1 0 0
2 2 4 6 6 4 2 3 4 6 8 9 9 7 7 8 10 11 11 11 10 8 6 4 4 5 5 5 5 5 4 4 5 6 6 6 7 7 6 4 1 0 0 0
1 1 2 4 4 3 1 1 2 4 6 7 7 5 5 6 8 8 8 8 6 4 3 2 2 3 4 4 4 4 4 3 3 4 3 3 3 3 2 1 0 0 0 0
1 1 2 3 3 2 1 0 1 2 4 5 6 5 5 6 7 6 5 4 3 1 1 1 1 2 2 2 2 3 3 2 2 2 1 1 1 1 0 0 0 0 0 0
0 1 2 3 3 2 0 0 0 0 2 4 5 6 6 6 5 4 2 1 1 0 0 0 0 1 1 1 1 1 1 1 1 1 0 0 0 0 0 0 0 0 0 0
1 1 2 2 2 1 0 0 0 0 0 2 4 5 5 5 3 2 1 0 0 0 0 0 0 0 0 0 0 0 0 0 0 0 0 0 0 0 0 0 0 0 0 0
1 1 1 1 1 0 0 0 0 0 1 2 3 4 4 4 2 1 0 0 0 0 0 0 0 0 0 0 0 0 0 0 0 0 0 0 0 0 0 0 0 0 0 0
1 1 1 1 1 1 0 0 0 0 1 2 2 2 2 1 0 0 0 0 0 0 0 0 0 0 0 0 0 0 0 0 0 0 0 0 0 0 0 0 0 0 0 0
1 1 1 1 1 1 0 0 0 0 0 1 1 1 1 0 0 0 0 0 0 0 0 0 0 0 0 0 0 0 0 0 0 0 0 0 0 0 0 0 0 0 0 0
1 1 0 0 1 1 0 0 0 0 0 0 0 0 0 0 0 0 0 0 0 0 0 0 0 0 0 0 0 0 0 0 0 0 0 0 0 0 0 0 0 0 0 0
0 1 0 0 0 0 0 0 0 0 0 0 0 0 0 0 0 0 0 0 0 0 0 0 0 0 0 0 0 0 0 0 0 0 0 0 0 0 0 0 0 0 0 0

GEFSNGP_con_prob3kmehi_222.txt.gz
EHI
0 0 0 0 0 0 0 0 0 1 3 5 9 12 15 20 26 31 35 40 44 46 46 45 45 43 40 35 30 29 31 34 31 28 26 27 27 23 16 13 10 8 6 6
0 0 0 0 0 0 0 0 1 2 3 6 12 16 20 25 30 32 34 38 43 44 42 41 42 41 37 33 28 27 29 31 30 28 27 27 26 22 16 12 10 9 7 7
0 0 0 0 0 1 2 3 4 4 4 9 18 23 25 30 34 34 34 36 40 41 39 38 38 38 35 30 26 25 26 28 30 30 29 26 23 19 15 12 11 10 9 8
0 0 0 0 1 3 6 7 7 6 6 13 21 26 27 30 33 33 32 33 35 37 37 37 38 37 33 29 26 25 25 28 30 30 29 24 19 17 14 12 11 9 8 9
0 0 0 1 2 4 6 9 9 9 11 17 23 26 26 27 28 30 31 31 31 33 35 36 36 34 31 29 26 24 25 27 28 28 25 21 17 15 13 11 7 6 6 6
0 0 1 3 5 5 5 6 7 10 15 19 23 24 24 23 25 29 31 31 31 33 34 31 29 29 29 26 23 20 20 24 26 24 21 17 15 14 12 8 6 4 4 4
0 1 2 4 7 6 4 3 5 9 15 19 20 21 22 23 27 31 32 31 32 33 31 25 23 25 24 21 17 14 14 18 21 21 18 14 12 11 10 8 6 5 4 3
0 1 2 5 7 5 3 3 5 9 14 17 18 20 23 27 30 32 32 33 33 31 27 22 22 23 20 16 14 12 12 14 17 18 18 14 11 9 8 7 6 4 3 3
2 2 4 5 5 5 5 5 7 9 12 16 18 20 24 27 29 30 31 33 32 30 26 24 22 21 18 15 13 13 12 13 16 17 16 14 10 7 5 5 5 4 3 3
4 5 6 7 6 6 9 10 9 9 12 17 20 20 21 22 23 25 26 28 29 27 25 23 22 20 18 16 15 13 13 13 14 15 14 11 7 4 3 4 4 3 2 2
6 5 7 8 7 7 11 13 11 11 13 18 21 20 19 19 18 20 22 23 24 23 21 19 19 19 19 18 15 13 12 11 10 10 9 7 4 2 2 3 2 1 1 1
5 5 7 8 7 6 9 11 11 10 11 15 18 18 17 16 16 18 20 21 21 20 18 17 17 18 18 16 14 12 11 9 8 7 5 3 1 1 1 1 1 0 0 0
5 6 7 8 7 5 6 8 8 8 8 10 11 12 12 13 15 18 19 19 19 18 17 16 16 16 15 14 12 10 9 8 7 5 2 0 0 0 0 0 0 0 0 0
5 5 7 8 7 6 7 8 8 7 7 8 8 9 10 11 13 15 16 15 16 16 16 16 14 13 12 11 9 8 8 7 7 5 2 0 0 1 0 0 0 0 0 0
4 4 5 7 7 7 8 8 8 7 7 9 9 10 10 10 10 11 11 10 11 13 14 14 11 9 8 7 6 5 6 6 6 5 3 1 0 0 0 0 0 0 0 0
2 3 5 7 6 6 6 6 6 6 7 8 9 9 9 8 7 8 7 7 8 10 11 10 8 5 3 3 4 3 4 5 5 4 3 1 0 0 0 0 0 0 0 0
0 2 5 7 5 3 3 3 4 5 6 7 7 7 7 6 6 6 5 4 5 6 6 5 4 2 1 1 1 1 1 3 3 3 3 2 0 0 0 0 0 0 0 0
1 2 4 5 3 1 0 1 3 5 5 6 6 5 4 4 4 4 3 2 1 2 2 1 1 1 1 1 0 0 0 1 1 2 2 1 0 0 0 0 0 0 0 0
2 2 2 2 1 0 0 0 2 3 4 4 4 3 3 2 2 2 1 0 0 0 0 0 0 0 1 1 0 0 0 0 0 1 1 0 0 0 0 0 0 0 0 0
1 1 1 1 0 0 0 0 0 1 1 1 1 1 1 1 1 2 1 0 0 0 0 0 0 0 0 0 0 0 0 0 0 0 0 0 0 0 0 0 0 0 0 0
0 0 0 0 0 0 0 0 0 0 0 0 0 0 0 0 1 1 1 0 0 0 0 0 0 0 0 0 0 0 0 0 0 0 0 0 0 0 0 0 0 0 0 0
0 0 0 0 0 0 0 0 0 0 0 0 0 0 0 0 0 0 0 0 0 0 0 0 0 0 0 0 0 0 0 0 0 0 0 0 0 0 0 0 0 0 0 0
0 0 0 0 0 0 0 0 0 0 0 0 0 0 0 0 0 0 0 0 0 0 0 0 0 0 0 0 0 0 0 0 0 0 0 0 0 0 0 0 0 0 0 0
0 0 0 0 0 0 0 0 0 0 0 0 0 0 0 0 0 0 0 0 0 0 0 0 0 0 0 0 0 0 0 0 0 0 0 0 0 0 0 0 0 0 0 0
0 0 0 0 0 0 0 0 0 0 0 0 0 0 0 0 0 0 0 0 0 0 0 0 0 0 0 0 0 0 0 0 0 0 0 0 0 0 0 0 0 0 0 0
0 0 0 0 0 0 0 0 0 0 0 0 0 0 0 0 0 0 0 0 0 0 0 0 0 0 0 0 0 0 0 0 0 0 0 0 0 0 0 0 0 0 0 0
0 0 0 0 0 0 0 0 0 0 0 0 0 0 0 0 0 0 0 0 0 0 0 0 0 0 0 0 0 0 0 0 0 0 0 0 0 0 0 0 0 0 0 0

GEFSNGP_con_prob3kmehi_228.txt.gz
EHI
0 0 0 0 0 0 0 0 0 0 1 1 2 3 3 4 6 8 11 15 21 23 23 22 24 28 28 25 24 24 23 21 19 16 14 9 2 0 0 1 3 4 4 3
0 0 0 0 0 0 0 0 0 0 0 2 3 4 4 5 8 9 12 18 22 22 21 20 22 26 27 23 21 20 20 19 18 16 15 9 3 0 1 2 4 5 5 5
0 0 0 0 0 0 0 0 0 0 2 3 5 6 6 7 10 14 17 20 21 19 16 16 17 21 23 21 19 18 18 18 18 17 16 11 5 2 2 4 6 7 7 7
0 0 0 0 0 0 0 0 0 2 5 6 8 10 9 9 12 17 19 19 18 15 13 12 15 18 19 18 17 18 19 20 20 17 15 12 8 4 3 4 6 7 7 7
0 0 0 0 0 0 0 1 2 5 8 9 11 14 13 12 15 18 18 16 15 13 11 12 15 16 15 15 15 16 19 20 19 16 13 11 9 6 5 5 6 6 6 6
0 0 0 0 0 0 1 2 3 6 8 9 11 13 12 13 17 20 18 17 15 14 13 12 13 13 13 13 14 16 18 18 16 14 12 10 9 8 7 6 5 4 4 4
0 0 0 0 0 0 0 1 3 5 7 7 8 9 12 15 18 20 21 20 19 17 15 14 13 12 12 13 14 16 17 16 14 13 12 10 9 8 7 6 5 4 3 3
0 0 0 0 0 0 0 1 3 5 6 8 9 11 15 18 20 22 23 22 20 18 17 16 15 13 13 12 12 14 15 15 14 13 12 11 10 8 7 7 6 5 4 3
0 0 0 0 0 0 0 1 4 6 7 9 11 14 16 19 21 22 22 21 19 17 17 17 15 14 13 12 12 12 12 13 12 12 12 12 10 8 8 8 7 5 3 2
0 1 1 1 1 0 1 3 6 7 8 8 10 12 13 15 18 19 18 17 16 14 14 13 13 13 13 12 11 10 10 11 11 9 9 10 9 7 6 6 6 4 2 1
1 1 2 2 2 1 2 5 7 9 8 7 7 8 9 11 12 13 13 13 12 11 11 11 11 12 12 11 9 8 7 8 8 7 7 8 7 5 3 3 3 2 1 1
0 1 1 2 2 2 3 6 8 8 8 6 5 7 8 9 10 10 10 10 9 10 11 10 10 11 11 10 8 7 6 5 6 6 6 6 6 3 1 1 1 1 0 1
0 0 1 1 1 2 3 5 6 6 6 6 5 6 9 9 8 8 7 7 7 8 8 7 6 7 8 7 7 6 5 4 4 5 6 5 4 3 1 0 0 0 0 0
0 0 1 1 1 2 3 4 4 5 6 6 5 6 8 7 6 6 5 4 4 3 3 2 2 3 4 4 4 4 4 3 3 4 4 4 3 3 2 1 0 0 0 0
0 0 1 2 2 3 3 3 3 4 5 6 5 4 5 5 4 4 4 3 2 1 0 0 1 1 1 1 2 3 3 3 3 3 3 3 3 3 2 1 0 0 0 0
1 1 1 2 3 3 3 3 3 3 4 5 3 2 3 3 3 3 3 3 2 1 0 0 0 0 0 1 2 3 3 3 3 3 3 3 2 1 1 0 0 0 0 0
2 2 3 3 3 3 3 3 3 3 3 4 3 2 3 3 3 3 3 3 2 1 0 0 0 0 0 0 1 2 2 2 2 2 2 1 1 0 0 0 0 0 0 0
1 2 3 3 3 3 2 2 2 2 2 3 3 3 3 3 3 3 3 3 2 1 0 0 0 0 0 0 0 1 1 1 1 1 1 0 0 0 0 0 0 0 0 0
0 1 2 3 2 1 1 1 1 0 1 1 3 3 3 3 3 3 2 1 1 0 0 0 0 0 0 0 0 0 0 0 0 0 0 0 0 0 0 0 0 0 0 0
0 1 1 1 1 0 0 0 0 0 0 1 3 3 3 3 2 2 1 1 0 0 0 0 0 0 0 0 0 0 0 0 0 0 0 0 0 0 0 0 0 0 0 0
1 1 1 0 0 0 0 0 0 0 1 2 2 2 2 1 1 0 0 0 0 0 0 0 0 0 0 0 0 0 0 0 0 0 0 0 0 0 0 0 0 0 0 0
2 2 1 0 0 0 0 0 0 0 1 2 1 1 1 0 0 0 0 0 0 0 0 0 0 0 0 0 0 0 0 0 0 0 0 0 0 0 0 0 0 0 0 0
1 1 1 0 0 0 0 0 0 0 1 1 0 0 0 0 0 0 0 0 0 0 0 0 0 0 0 0 0 0 0 0 0 0 0 0 0 0 0 0 0 0 0 0
0 0 0 0 0 0 0 0 0 0 0 0 0 0 0 0 0 0 0 0 0 0 0 0 0 0 0 0 0 0 0 0 0 0 0 0 0 0 0 0 0 0 0 0
0 0 0 0 0 0 0 0 0 0 0 0 0 0 0 0 0 0 0 0 0 0 0 0 0 0 0 0 0 0 0 0 0 0 0 0 0 0 0 0 0 0 0 0
0 0 0 0 0 0 0 0 0 0 0 0 0 0 0 0 0 0 0 0 0 0 0 0 0 0 0 0 0 0 0 0 0 0 0 0 0 0 0 0 0 0 0 0
0 0 0 0 0 0 0 0 0 0 0 0 0 0 0 0 0 0 0 0 0 0 0 0 0 0 0 0 0 0 0 0 0 0 0 0 0 0 0 0 0 0 0 0

GEFSNGP_con_prob3kmehi_234.txt.gz
EHI
0 0 0 0 0 0 0 0 0 0 2 5 9 11 9 6 5 6 9 21 35 42 42 44 45 46 48 51 51 50 48 47 45 41 35 32 31 28 23 19 14 10 7 5
0 0 0 0 0 0 0 0 0 0 2 6 10 11 9 6 5 7 12 21 34 41 44 46 47 47 49 51 52 50 49 46 41 34 30 28 27 24 22 19 15 11 8 7
0 0 0 0 0 0 0 0 0 1 4 8 12 12 8 6 7 11 16 23 31 38 45 50 49 48 49 51 51 49 46 41 34 28 27 25 23 22 21 20 17 14 11 10
0 0 0 0 0 0 0 0 1 3 6 10 12 10 7 6 9 14 20 27 31 36 42 47 46 44 46 47 45 42 37 32 29 27 27 26 24 24 23 22 19 15 14 13
0 0 0 0 0 0 0 0 1 4 8 11 11 8 5 7 11 16 24 33 36 36 37 39 39 39 41 41 37 33 28 24 24 27 27 25 25 25 25 23 19 15 15 16
0 0 0 0 0 0 0 0 2 5 8 11 10 8 7 11 15 20 28 36 39 38 36 35 35 37 39 37 32 27 23 19 21 24 25 24 25 25 24 23 19 15 14 14
0 0 0 0 1 1 2 4 6 8 9 11 13 13 14 16 19 24 30 35 38 39 39 36 35 37 35 31 26 22 19 18 20 22 23 24 25 24 22 20 17 15 13 12
0 0 1 3 4 4 5 9 11 11 11 14 17 19 18 18 22 27 32 35 38 40 40 37 35 34 31 25 19 17 17 19 20 22 23 23 23 22 19 16 16 16 14 12
1 2 4 6 6 6 7 11 13 13 14 17 19 19 19 20 25 30 33 36 38 38 38 35 32 30 26 20 15 14 17 19 19 19 20 21 22 20 17 14 14 16 15 12
4 4 5 6 7 7 7 10 13 14 15 17 19 19 19 23 28 31 32 33 34 34 34 33 30 25 21 17 14 13 16 18 17 14 14 17 18 17 15 13 14 15 14 12
7 6 5 6 7 6 7 10 13 14 13 14 16 17 20 25 29 30 29 27 26 28 30 29 25 20 17 16 14 13 14 16 15 12 11 13 13 12 11 11 11 11 10 9
8 7 6 6 6 6 8 11 13 13 11 10 11 13 17 23 26 26 24 22 20 21 22 21 17 13 13 14 14 13 13 15 14 10 9 9 10 9 8 7 6 5 5 6
9 8 8 7 6 8 9 10 10 11 9 7 8 10 13 17 20 20 19 18 17 17 16 14 11 9 11 13 13 12 12 13 12 9 7 7 8 8 7 5 3 2 3 3
8 9 8 8 8 9 9 8 7 8 6 6 8 9 10 11 14 16 16 15 15 15 13 11 9 9 10 10 10 10 10 11 11 9 6 6 7 8 6 4 4 3 2 1
6 7 8 8 9 9 8 6 5 5 5 6 8 9 9 9 11 12 12 12 12 12 10 9 9 9 9 9 9 8 8 9 10 8 6 6 6 6 4 4 4 4 2 1
6 6 6 8 9 9 7 6 5 6 5 5 5 7 7 7 7 7 7 8 8 8 8 7 7 7 8 8 7 6 6 7 7 7 6 6 5 4 3 3 3 3 2 1
5 6 7 8 8 7 6 7 8 8 6 4 3 4 5 4 4 4 4 4 5 6 6 6 6 6 6 4 4 4 4 4 4 5 6 5 4 3 2 2 2 2 2 1
3 5 7 7 6 5 5 7 11 11 7 4 3 3 3 3 3 3 3 3 4 5 6 6 5 5 4 2 1 3 3 3 3 3 3 3 2 1 1 1 1 1 1 0
1 3 5 5 5 3 3 6 9 10 8 5 4 5 4 3 3 3 3 3 3 4 6 5 4 3 3 1 1 3 3 2 1 1 1 1 1 0 0 0 0 0 0 0
1 2 2 2 2 2 3 4 6 8 7 6 5 5 4 3 3 3 3 3 3 4 5 4 3 3 3 3 3 3 2 1 0 0 0 0 0 0 0 0 0 0 0 0
1 1 1 0 1 2 3 4 5 6 6 6 5 4 3 3 3 3 3 3 4 4 3 3 3 3 2 2 2 2 1 0 0 0 0 0 0 0 0 0 0 0 0 0
1 0 0 0 1 3 4 5 5 5 5 5 4 3 3 3 3 3 3 3 3 2 2 2 2 1 1 1 1 1 0 0 0 0 0 0 0 0 0 0 0 0 0 0
0 0 0 0 1 4 6 6 5 5 4 3 3 3 3 2 2 2 2 1 1 1 1 1 1 0 0 0 1 0 0 0 0 0 0 0 0 0 0 0 0 0 0 0
0 0 1 1 2 5 6 6 5 4 3 1 1 2 1 1 1 1 1 0 0 0 0 0 0 0 0 0 0 0 0 0 0 0 0 0 0 0 0 0 0 0 0 0
0 0 1 2 3 5 6 6 5 3 2 1 1 1 1 0 0 0 0 0 0 0 0 0 0 0 0 0 0 0 0 0 0 0 0 0 0 0 0 0 0 0 0 0
0 0 1 1 3 4 5 5 4 3 2 1 1 0 0 0 0 0 0 0 0 0 0 0 0 0 0 0 0 0 0 0 0 0 0 0 0 0 0 0 0 0 0 0
0 0 0 1 2 3 2 2 2 1 1 1 0 0 0 0 0 0 0 0 0 0 0 0 0 0 0 0 0 0 0 0 0 0 0 0 0 0 0 0 0 0 0 0

GEFSNGP_con_prob3kmehi_240.txt.gz
EHI
0 0 0 0 0 0 0 0 0 2 6 12 19 22 21 19 18 17 18 27 42 54 58 58 58 60 63 66 68 67 65 64 63 60 57 55 53 51 46 39 36 36 32 26
0 0 0 0 0 0 0 0 1 4 10 16 20 22 22 20 17 17 20 29 41 51 57 59 61 62 63 65 66 66 64 61 61 60 57 53 49 47 44 38 35 34 29 24
0 0 0 0 0 0 1 2 3 8 16 22 23 22 22 20 16 17 22 30 39 48 56 60 62 62 63 64 64 62 59 57 57 57 55 50 46 44 43 38 34 31 28 25
0 0 0 1 1 1 1 3 7 12 20 24 23 21 20 19 18 20 25 32 39 46 52 57 59 61 62 62 59 56 53 51 52 52 52 48 43 42 41 38 34 31 30 28
0 0 0 1 1 1 2 5 9 14 19 21 18 17 19 22 24 28 33 38 41 42 47 53 57 58 59 58 55 51 48 47 46 46 45 41 37 37 38 37 34 31 29 26
0 0 0 0 0 1 3 7 11 17 21 20 17 18 24 29 32 36 41 43 44 44 47 52 54 54 54 54 52 49 46 45 43 40 38 35 33 34 36 35 32 29 24 21
0 0 2 2 3 6 13 19 22 26 28 26 24 25 28 32 35 40 44 45 47 48 50 52 51 49 48 48 47 45 43 42 39 36 33 33 33 33 33 32 30 26 20 17
2 3 7 11 13 20 32 37 34 32 32 32 31 29 30 32 37 41 42 44 47 50 50 50 48 45 43 41 40 39 39 37 35 32 29 30 31 30 28 27 26 24 19 16
7 8 11 17 22 28 37 41 37 30 30 32 32 31 33 37 41 42 41 42 44 47 48 46 44 42 40 37 36 35 34 31 28 26 24 23 24 22 21 21 22 21 18 16
14 11 10 13 17 22 28 31 30 27 27 29 30 32 35 38 41 41 41 42 42 43 44 43 41 40 38 35 32 31 30 27 23 20 17 15 15 14 14 16 17 16 14 14
16 12 8 9 12 16 22 26 26 25 26 26 29 32 33 34 37 38 39 39 39 39 39 39 39 38 35 32 30 30 28 24 20 16 12 10 10 9 9 11 12 9 8 9
17 16 14 14 16 17 21 23 22 22 23 26 28 30 30 30 31 33 35 35 34 32 31 33 34 34 31 28 28 30 27 22 17 13 10 9 8 7 5 6 5 3 3 4
21 21 20 20 20 20 20 19 18 19 21 23 26 26 25 26 25 25 27 27 25 24 23 25 28 31 28 23 24 26 24 19 14 11 9 9 8 6 5 4 2 1 1 1
20 20 18 18 19 20 19 17 17 18 18 19 21 20 19 19 17 17 19 20 19 17 17 18 21 25 24 19 18 21 18 13 10 9 8 8 8 6 5 5 4 2 1 0
14 14 13 13 15 17 18 17 16 15 13 14 16 16 15 14 14 14 15 17 18 16 15 15 16 16 16 14 14 16 13 9 7 7 7 7 7 6 6 6 6 3 1 0
10 11 11 11 13 15 16 15 14 11 10 11 14 14 13 13 15 15 15 16 17 16 15 15 13 11 10 10 11 11 9 6 5 6 7 7 7 7 6 6 6 3 1 0
8 9 10 10 11 12 13 12 12 11 11 11 13 14 13 14 17 17 15 15 16 17 15 14 11 9 8 8 8 7 5 4 4 6 8 9 8 7 6 5 4 3 1 1
7 7 8 8 9 10 11 11 11 11 10 11 12 13 13 13 15 15 13 13 15 15 13 11 8 7 7 7 7 6 3 2 3 6 7 8 7 6 4 3 2 1 1 0
7 7 7 8 9 9 10 10 10 9 8 9 12 12 12 11 13 15 14 12 11 11 10 8 6 6 6 6 6 5 2 1 2 3 3 3 4 4 2 1 1 0 0 0
6 6 8 9 9 10 9 9 8 7 7 9 12 12 11 11 13 16 15 12 10 8 7 6 6 6 6 5 4 4 2 1 1 1 1 0 1 2 2 1 1 0 0 0
5 6 6 7 8 9 8 7 7 7 6 8 10 11 11 12 14 15 14 12 10 6 4 4 5 5 4 3 2 3 3 2 1 0 0 0 0 1 1 1 0 0 0 0
7 6 5 5 6 8 7 6 5 5 6 7 9 10 11 12 13 13 12 11 7 4 3 3 3 2 1 1 2 3 3 2 1 0 0 0 0 0 0 0 0 0 0 0
6 5 4 4 5 6 7 5 3 3 5 7 8 10 12 13 14 12 10 8 5 2 2 2 1 0 0 1 3 3 2 1 0 0 0 0 0 0 0 0 0 0 0 0
4 3 3 3 3 3 3 3 3 3 5 7 9 11 12 13 14 11 8 5 3 1 1 1 0 0 1 2 3 3 1 0 0 0 0 0 0 0 0 0 0 0 0 0
2 2 2 2 2 2 1 1 3 4 7 9 10 11 11 12 13 10 7 3 1 0 0 0 0 1 2 2 2 2 1 0 0 0 0 0 0 0 0 0 0 0 0 0
2 2 2 1 2 2 1 1 2 4 7 9 10 10 10 10 10 7 4 2 0 0 0 0 0 1 1 1 1 1 0 0 0 0 0 0 0 0 0 0 0 0 0 0
3 3 2 1 1 1 1 2 2 4 5 8 9 9 9 9 7 4 2 1 0 0 0 0 0 0 1 0 0 0 0 0 0 0 0 0 0 0 0 0 0 1 1 1

GEFSNGP_con_prob3kmehi_246.txt.gz
EHI
0 0 0 0 0 0 0 0 1 4 7 9 13 16 17 18 20 21 20 21 25 31 37 40 41 44 47 50 52 52 54 54 48 40 33 28 24 23 21 18 14 12 11 9
0 0 0 0 0 0 0 1 3 6 9 12 16 19 20 21 21 21 21 24 29 34 40 42 42 43 46 49 50 51 52 51 45 37 30 26 23 21 19 17 15 14 12 9
0 0 0 0 1 1 2 3 6 10 14 17 21 24 23 22 21 21 24 30 34 37 41 42 40 41 44 46 47 48 47 44 39 33 27 25 23 20 19 19 19 18 16 14
0 0 0 1 2 3 4 6 9 14 19 23 27 28 25 21 20 21 26 32 36 37 38 38 37 38 41 43 43 43 41 37 31 28 26 26 25 23 22 23 21 20 20 18
0 0 0 1 3 4 7 10 13 17 20 23 28 30 27 23 21 23 27 31 33 35 36 35 35 36 38 40 40 38 36 31 26 24 24 25 24 24 23 21 17 16 17 16
0 0 0 1 3 5 8 12 15 16 17 18 21 24 24 22 24 26 28 29 31 33 34 34 33 35 37 38 37 34 31 26 22 21 22 22 22 22 20 15 11 10 10 10
0 0 0 3 5 5 6 10 15 16 15 15 15 16 17 20 26 30 30 29 30 32 31 30 30 33 35 34 31 28 25 21 18 19 20 20 20 19 15 10 7 6 6 5
0 0 1 4 7 6 7 12 17 17 14 13 13 14 17 22 29 33 33 31 31 31 29 26 27 29 28 24 21 18 16 14 14 16 18 18 17 16 12 8 6 5 4 3
1 1 2 4 7 8 11 16 18 14 11 10 10 14 19 26 31 35 35 33 32 31 29 27 25 24 21 17 12 9 9 9 10 12 13 13 12 11 9 7 5 4 3 3
3 4 5 6 7 9 13 17 16 13 11 11 10 14 21 26 30 33 33 31 31 31 28 25 22 19 16 13 10 8 8 8 8 9 9 8 8 7 7 6 5 4 3 3
5 5 6 7 8 10 12 14 14 13 13 13 14 16 21 26 29 30 28 25 25 26 23 19 17 14 11 10 9 10 10 8 6 6 6 4 4 4 4 4 4 3 2 3
5 5 5 6 8 9 11 11 12 14 15 15 15 15 17 21 24 25 23 20 18 16 14 14 14 12 9 8 7 8 9 7 4 3 4 3 2 1 1 1 1 1 1 1
6 5 5 5 6 8 9 9 11 14 16 14 12 12 13 15 16 17 17 17 13 10 8 10 12 11 9 7 6 6 6 5 3 3 4 3 1 1 1 0 0 0 0 0
5 5 5 4 4 5 6 7 8 11 13 12 11 11 12 12 11 11 11 12 11 8 7 9 10 9 8 7 6 6 5 4 3 3 3 3 2 2 2 1 0 0 0 0
5 4 3 2 2 2 3 4 5 6 8 9 8 9 9 10 9 8 8 8 9 8 7 8 10 9 8 7 6 6 4 4 4 3 2 2 3 3 3 1 0 0 0 0
4 3 2 1 1 1 2 3 2 2 3 5 5 5 6 7 7 7 6 6 6 7 7 8 9 8 7 7 6 6 4 3 3 2 1 1 2 3 3 2 1 0 0 0
1 1 1 1 1 2 3 3 1 0 1 2 3 3 4 5 6 6 6 5 4 5 6 8 8 7 6 6 6 6 4 3 2 2 1 0 1 1 2 3 2 1 0 0
0 1 2 2 3 3 3 2 1 0 0 1 2 3 4 6 7 7 6 4 3 3 4 5 6 5 4 4 5 4 4 3 3 2 1 0 0 0 1 2 2 1 0 0
1 3 4 4 3 3 3 2 1 0 0 1 2 4 5 6 7 7 6 4 3 3 3 3 3 3 2 1 2 2 2 3 3 2 1 0 0 0 0 1 2 1 0 0
3 4 5 4 2 2 3 2 1 0 0 1 2 3 4 5 6 6 6 4 3 3 3 3 1 1 0 0 0 0 1 3 3 1 0 0 0 0 0 1 1 1 0 0
3 4 4 3 1 2 2 2 1 0 0 1 2 3 3 3 4 5 5 3 2 2 3 2 1 0 0 0 0 0 1 2 2 1 0 0 0 0 0 0 0 0 0 0
3 4 4 2 1 1 1 1 0 0 0 1 2 3 2 2 3 4 3 2 1 1 1 1 1 0 0 0 0 0 0 1 2 2 1 0 0 0 0 0 0 0 0 0
3 3 2 1 1 0 0 0 0 0 0 0 1 2 1 1 2 3 2 1 0 0 0 0 0 0 0 0 0 0 0 0 1 1 1 0 0 0 0 0 0 0 0 0
2 2 1 0 0 0 0 0 0 1 1 1 0 1 1 0 1 2 1 0 0 0 0 0 0 0 0 0 0 0 0 0 0 0 0 0 0 0 0 0 0 0 0 0
1 1 0 0 0 0 0 0 1 2 2 2 1 0 0 0 0 1 0 0 0 0 0 0 0 0 0 0 0 0 0 0 0 0 0 0 0 0 0 0 0 0 0 0
0 0 0 0 0 0 0 1 2 3 3 2 1 0 0 0 1 1 1 0 0 0 0 0 0 0 0 0 0 0 0 0 0 0 0 0 0 0 0 0 0 0 0 0
0 0 0 0 0 0 0 1 2 3 3 1 0 0 0 0 1 2 2 1 0 0 0 0 0 0 0 0 0 0 0 0 0 0 0 0 0 0 0 0 0 0 0 0

GEFSNGP_con_prob3kmehi_252.txt.gz
EHI
0 0 0 0 0 0 0 1 2 3 4 5 7 9 10 12 17 21 19 16 16 16 15 14 17 19 22 24 27 33 36 34 30 26 23 20 15 13 14 13 8 6 5 4
0 0 0 0 0 0 0 1 2 3 4 6 9 11 11 14 17 18 17 16 16 17 16 16 19 22 24 25 27 31 34 32 28 24 22 19 16 15 15 13 10 8 6 5
0 0 0 0 0 0 0 1 3 4 6 9 13 14 14 15 17 16 16 17 18 17 17 17 20 23 25 25 26 29 30 29 26 22 20 17 16 16 15 11 9 9 8 7
0 0 0 0 0 0 0 1 3 7 11 16 17 16 15 15 16 15 16 18 18 17 17 18 20 23 26 27 26 26 26 25 23 21 18 16 16 16 14 10 9 9 9 9
0 0 0 0 0 0 0 0 3 9 16 19 18 16 15 15 14 13 14 15 15 14 16 19 21 23 26 27 25 24 21 20 19 17 17 17 17 16 14 11 10 10 9 8
0 0 0 0 0 0 0 0 3 8 13 16 16 15 14 15 14 13 13 14 13 12 14 18 20 21 23 23 21 19 17 14 14 14 14 15 16 15 14 12 11 11 9 8
0 0 0 0 0 0 0 0 3 6 10 11 12 12 14 15 16 15 16 16 13 11 12 14 16 17 18 17 15 14 12 10 10 10 11 13 14 14 13 11 11 10 9 7
0 0 0 1 2 1 0 1 3 6 9 11 13 14 14 16 16 17 18 17 14 10 10 12 13 13 12 12 10 9 7 6 6 7 8 11 13 13 11 10 9 9 8 6
1 1 1 2 3 3 2 3 6 9 12 15 17 17 16 17 16 15 15 14 12 10 10 10 10 9 9 9 8 5 3 2 2 3 6 9 11 11 10 8 7 7 7 6
3 3 3 3 3 5 5 5 7 11 14 16 17 16 16 16 13 10 8 8 9 9 9 8 8 7 8 9 8 5 2 0 0 1 4 7 8 8 7 6 6 6 6 6
3 4 3 2 2 3 5 6 8 10 12 13 13 13 12 11 8 6 4 4 5 6 7 7 7 6 7 8 8 5 2 1 0 0 2 5 5 5 4 4 4 4 5 5
2 2 2 1 1 1 3 5 7 8 9 9 9 8 7 5 4 3 2 2 2 4 5 6 6 6 7 7 6 4 2 1 0 1 2 4 4 3 1 1 1 1 2 3
1 1 1 1 2 2 2 4 5 6 7 8 7 5 4 2 1 1 1 1 1 2 4 5 6 6 6 6 5 3 2 1 0 1 2 3 3 2 0 0 0 0 0 1
2 2 2 1 1 2 2 3 4 5 6 7 6 4 2 1 0 0 1 1 1 2 3 4 6 6 6 6 4 3 2 1 0 1 2 2 2 1 0 1 1 1 0 0
3 3 1 0 0 1 1 1 3 4 4 5 4 3 1 0 0 0 1 1 1 2 3 4 5 5 5 4 3 3 2 1 0 0 1 1 0 0 0 1 2 1 0 0
2 2 1 0 0 0 0 0 1 1 1 2 2 2 1 0 0 0 1 2 2 3 3 3 4 4 4 3 2 2 1 0 0 0 0 0 0 0 0 1 1 1 0 0
1 1 0 0 0 0 0 0 0 0 0 0 1 1 0 0 0 0 1 2 3 3 3 3 3 4 4 3 2 2 1 0 0 0 1 1 0 0 0 0 0 0 0 0
0 0 0 0 0 0 0 0 0 0 0 0 0 0 0 0 0 0 1 2 3 3 3 3 3 3 2 2 1 1 1 0 0 0 1 1 0 0 0 0 0 0 0 0
0 0 0 0 1 1 1 0 0 0 0 0 0 0 0 0 0 0 1 2 3 3 3 3 3 2 1 0 0 0 0 0 0 0 1 1 0 0 0 0 0 0 0 0
0 0 0 1 2 2 2 1 0 0 0 0 0 0 0 0 0 0 1 2 3 3 3 3 3 2 1 0 0 0 0 0 0 0 0 0 0 0 0 0 0 0 0 0
0 0 0 1 2 2 2 1 0 0 0 0 0 0 0 0 0 0 0 1 3 3 3 3 3 2 1 0 0 0 0 0 0 0 0 0 0 0 0 0 0 0 0 0
0 0 0 0 1 1 1 0 0 0 0 0 0 0 0 0 0 0 0 1 2 3 2 2 2 1 0 0 0 0 0 0 0 0 0 0 0 0 0 0 0 0 0 0
0 0 0 0 0 0 0 0 0 0 0 0 0 0 0 0 0 0 0 1 2 1 1 0 0 0 0 0 0 0 0 0 0 0 0 0 0 0 0 0 0 0 0 0
0 0 0 0 0 0 0 0 0 0 0 0 0 0 0 0 0 0 0 1 1 1 0 0 0 0 0 0 0 0 0 0 0 0 0 0 0 0 0 0 0 0 0 0
0 0 0 0 0 0 0 0 0 0 0 0 0 0 0 0 0 0 0 0 0 0 0 0 0 0 0 0 0 0 0 0 0 0 0 0 0 0 0 0 0 0 0 0
0 0 0 0 0 0 0 0 0 0 0 0 0 0 0 0 0 0 0 0 0 0 0 0 0 0 0 0 0 0 0 0 0 0 0 0 0 0 0 0 0 0 0 0
0 0 0 0 0 0 0 0 0 0 0 0 0 0 0 0 0 0 0 0 0 0 0 0 0 0 0 0 0 0 0 0 0 0 0 0 0 0 0 0 0 0 0 0